Location: Isola Pescaroli
(45.0500°N, 10.1667°E)
Time: 01:55:34
(UTC+00:00)

SL-4 R/B - Pass Details

Date: 18 June 2021
Orbit: 428 x 662 km, 51.6° (Epoch: 29 July)

Event Time Altitude Azimuth Distance (km) Brightness Sun altitude
Rises 01:34:35 0° 287° (WNW) 2,571 5.3 -15.0°
Reaches altitude 10° 01:37:03 10° 300° (WNW) 1,649 4.4 -14.8°
Maximum altitude 01:40:16 28° 0° (N) 901 3.8 -14.5°
Drops below altitude 10° 01:43:20 10° 62° (ENE) 1,566 5.3 -14.2°
Sets 01:45:37 0° 74° (ENE) 2,415 6.1 -14.0°
